Showing default

OAO 1, 2142

Orbit data source: Space-Track

OAO 1, 2142 is a payload satellite owned by GSFC (US) in LEO that was launched on Fri, 08 Apr 1966 UTC via an ATLAS SLV-3 AGENA D launch vehicle from the Air Force Eastern Test Range (AFETR). Payload-class satellites include a variety of spacecraft equipped with specific instruments for various scientific and technological missions. These include communications satellites like Starlink; space stations such as the ISS; scientific satellites like the Hubble; Earth observation satellites from companies like Planet Labs, Umbra, and HawkEye 360; GPS; miniature CubeSats for education and research; and military/defense satellites.

Loading next visibility...
Identifier
2142, 1966-031A
Orbit
LEO
Country
Flag of USUS
Related business
Manufacturer
Grummann
Mission
Civil Astronomy
Bus & Motor
OAO, Unknown motor
Mass
1,769 kg wet, 1,769 kg dry
Launch date (UTC)
1966-04-08 (59 years ago)
Launch vehicle
ATLAS SLV-3 AGENA D
Launch site
Air Force Eastern Test Range (AFETR)
Object type
Payload
Rocket body
Debris
Shape & HBR
Oct Cyl + 2 Pan, 3.3 m
Radar Cross Section
9.480 m², Large (>1 m²)

Expand to show TLE details & history
Last TLE update: 21 hours ago

TLE from 21 hours ago
0 OAO 1
1 02142U 66031A   25260.35874557  .00000077  00000-0  33742-4 0  9991
2 02142  35.0469  21.6325 0007472 312.8467  47.1593 14.34594969111880
Epoch: 2025-09-17T08:36Z
TLE epoch observation values (Epoch: 2025-09-17T08:36:35.617Z)
Latitude
0.00003°
Longitude
-104.0517°
Altitude
771.735 km
Speed
7.472 km/s
True Right ascension
01h 26m 31s
True Declination
0° 00' 00"
Sunlit
Object was in full shadow at epoch
Visualization orbit readout
Latitude
Unknown
Longitude
Unknown
Altitude
Unknown
Speed
Unknown
Apparent Right ascension
Unknown
Apparent Declination
Unknown
Sunlit
N/A
Visualization observer readout
Local Sidereal Time
22:36:47
Azimuth
Unknown
Elevation
Unknown
Doppler factor
Unknown
Orbital elements
Apogee altitude
784.877 km
Perigee altitude
774.181 km
Semi-major axis
7,157.666 km
Eccentricity
0.00075
Inclination
35.0469°
RAAN
21.6325°
Arg. of periapsis
312.8467°
True anomaly
47.22212°
Mean anomaly
47.1593°
Eccentric anomaly
47.19071°
Mean motion
3.58415 °/min
Orbital period
100.44 mins
BSTAR
0.000033742
Loading maneuver chart data...
Computing Atmospheric mass density...
Loading historical data...
Loading historical data...
Loading historical data...
Loading historical data...
Loading historical data...
Loading historical data...
Loading historical data...
Other satellites on launch #31 in the year 1966 (1966-04-08 UTC)

Documentation

Showing up to 5 results
|